Wind_Speed
93 93 93 93 93 93 94 94 94 92 91 90 90 91 92 93 94 95 95 96 97 98 99 100 101 102 103 104 104 105 107 108 109 110 111 113 114 116 117 119 119 120 120 120 119 119 119 119 120 120 120 121 121 120 119 116 114 112 109 107 104 101 97 93 88 84 86 91 93 91 87 87 89 92 94 95 96 97 96 95 94 93 93 94 94
98 97 96 96 95 96 97 98 98 97 96 95 95 95 96 97 98 98 98 99 100 102 103 103 104 105 106 106 107 109 110 111 112 113 114 115 117 118 119 120 121 122 122 121 121 120 120 120 120 120 121 121 120 120 118 116 114 111 108 105 102 98 93 90 86 83 81 85 90 90 87 87 89 92 94 95 95 95 93 93 93 93 93 94 95
101 100 99 98 99 100 101 101 102 102 102 101 101 101 101 101 100 101 102 103 104 106 107 107 107 108 109 109 110 112 112 113 114 115 116 117 118 120 121 122 122 123 122 122 121 121 121 121 121 121 121 120 120 119 117 115 113 109 106 102 98 94 91 88 86 84 81 82 86 89 88 88 90 92 94 95 95 94 92 94 95 94 94 95 96
103 101 100 100 101 102 103 105 106 106 106 106 106 106 105 104 104 104 106 107 108 109 110 110 111 111 112 113 113 114 115 116 116 117 118 119 120 121 123 123 123 123 122 122 121 121 121 121 121 120 120 119 118 117 116 114 111 107 103 99 96 92 90 88 87 85 84 82 85 89 90 89 90 92 94 95 95 95 95 95 96 96 96 97 98
103 102 101 102 102 103 104 106 108 109 110 110 110 110 109 108 108 109 110 111 111 112 113 114 114 114 115 116 117 118 118 119 119 119 120 121 122 123 124 124 123 123 122 122 121 121 120 120 120 119 118 118 116 115 114 111 107 104 100 97 94 92 90 89 88 87 86 85 85 88 90 90 90 92 95 95 95 96 97 96 96 97 98 99 99
103 103 103 103 103 103 105 107 109 111 112 113 113 113 112 112 112 114 114 114 115 115 116 117 118 118 118 119 120 121 121 122 122 122 123 123 124 124 124 123 123 122 122 121 120 120 119 119 119 118 116 115 114 112 110 108 105 101 99 96 94 92 90 90 89 88 88 87 87 88 90 92 92 93 96 97 95 96 98 96 95 97 99 98 99
105 104 104 103 103 103 105 107 109 111 112 113 114 114 114 114 115 116 117 117 118 118 119 120 120 120 120 121 121 122 123 123 124 124 125 125 125 124 123 123 122 121 119 118 118 118 118 118 117 115 113 112 110 108 107 105 103 100 98 95 93 92 91 91 90 90 89 89 90 90 91 93 94 95 96 98 97 96 98 96 92 94 97 97 97
103 103 103 103 102 103 104 106 107 108 110 112 114 115 117 117 118 119 120 120 120 120 121 121 121 122 122 122 122 122 123 124 125 125 126 125 124 123 122 121 119 118 117 116 117 117 116 115 113 112 110 108 106 104 103 102 101 99 97 95 94 92 92 91 91 91 91 91 91 93 93 94 95 95 95 97 97 95 96 96 93 92 94 95 95
98 98 99 99 99 101 103 104 105 106 106 107 109 111 113 115 117 118 119 120 120 120 121 122 122 123 123 123 124 124 124 125 125 125 124 122 121 120 119 117 116 115 115 115 116 115 114 112 110 108 106 105 102 100 100 100 99 98 97 96 95 94 93 92 92 92 92 92 92 93 93 93 95 96 95 95 96 94 93 95 95 93 94 93 91
97 97 97 96 98 100 102 103 104 105 106 107 107 108 109 110 111 113 115 116 116 117 118 119 120 121 121 122 123 123 123 123 123 121 120 119 118 117 115 114 113 113 113 114 114 113 111 108 106 105 103 102 100 98 98 97 97 97 96 96 95 94 94 94 94 94 93 93 93 93 93 94 95 95 94 93 94 93 93 95 94 93 94 94 90
99 99 100 100 102 103 104 106 107 108 110 111 112 112 111 111 111 112 112 113 114 115 115 116 116 117 118 118 119 119 119 119 118 117 116 115 114 113 112 111 111 111 112 112 112 110 107 104 102 101 100 99 98 97 97 96 96 96 96 95 95 94 94 94 94 95 94 93 93 94 94 94 93 94 94 92 92 92 93 93 94 93 93 93 91
101 103 104 106 107 108 109 110 112 115 116 118 118 118 117 115 113 111 112 113 113 113 113 113 114 114 115 116 117 117 116 116 114 113 112 112 111 110 110 109 110 110 110 110 108 106 103 100 98 98 97 96 96 96 96 95 95 95 94 94 94 94 94 94 94 94 94 93 93 93 94 93 91 92 93 92 92 92 91 91 92 93 92 92 90
105 106 108 110 112 113 116 118 119 121 122 123 123 123 121 118 115 112 111 111 111 111 111 111 111 112 113 115 115 115 114 112 111 110 109 109 108 108 108 108 108 108 108 107 105 102 100 97 96 95 94 94 94 94 94 94 94 93 93 93 93 93 93 94 94 94 93 92 91 91 92 91 89 90 91 92 92 91 91 89 89 92 91 89 88
111 112 114 115 117 119 122 123 123 123 122 122 122 122 121 120 118 115 114 113 112 112 111 111 111 111 112 113 113 112 110 109 108 107 106 106 106 106 106 107 107 106 105 103 101 99 97 95 94 93 93 93 92 92 91 91 91 91 91 91 91 91 92 93 93 93 92 92 90 89 90 90 89 89 90 91 92 92 92 89 88 90 90 87 88
113 114 114 115 117 119 121 121 120 119 118 117 117 118 118 118 118 117 117 116 116 115 115 114 114 114 114 113 111 109 108 107 105 105 105 105 105 105 105 105 104 103 101 99 96 95 94 93 93 92 92 91 91 90 89 89 88 88 89 89 89 89 90 91 91 91 91 91 90 89 89 88 89 89 89 90 91 92 92 90 90 91 89 87 89
108 108 109 110 113 115 116 116 116 115 114 114 114 114 115 115 116 116 117 116 116 116 116 116 115 115 114 111 109 107 106 105 103 103 104 104 103 103 103 102 101 99 97 95 93 93 92 92 92 91 91 90 90 89 88 87 87 87 87 87 87 87 88 89 89 89 90 90 89 88 87 86 87 88 88 89 90 91 91 90 91 93 90 87 88
102 103 104 106 108 110 112 112 112 112 112 111 111 112 112 112 113 114 114 114 114 114 114 115 114 114 112 109 107 105 104 102 102 102 102 102 101 101 100 98 96 95 94 93 93 92 91 91 91 90 90 90 89 89 88 86 86 86 86 85 85 85 86 86 87 87 88 88 87 86 86 85 85 85 86 88 90 92 93 91 92 94 91 87 84
101 101 102 104 106 107 107 108 108 108 108 109 109 109 109 109 110 111 111 111 111 111 112 112 112 111 109 106 104 103 101 100 100 99 99 99 99 98 97 95 94 93 93 93 93 93 92 91 90 89 89 89 89 89 88 86 85 84 83 82 82 83 83 83 84 84 85 85 85 85 84 84 84 84 85 87 90 93 95 94 94 94 91 86 82
101 101 102 104 105 105 105 105 106 106 106 107 107 107 107 107 107 108 108 107 108 108 110 111 111 109 107 104 102 100 98 98 97 97 97 97 96 96 95 95 94 94 94 94 94 93 93 92 91 90 89 89 89 89 87 86 84 83 81 80 80 80 81 81 81 82 82 82 82 82 83 83 83 83 84 87 90 94 97 97 96 94 89 84 82
103 102 103 104 103 103 103 103 104 105 105 105 106 106 106 106 105 105 105 105 106 107 108 110 110 108 105 102 100 98 97 96 96 96 96 96 96 96 96 95 95 95 95 95 95 95 94 93 92 91 90 89 89 88 87 86 84 82 80 78 77 78 78 78 79 79 79 79 79 79 80 81 81 82 84 87 90 93 96 98 99 97 90 84 82
104 104 104 104 103 103 102 103 103 104 104 105 106 106 105 104 103 103 103 104 104 106 107 109 109 107 104 102 100 98 96 95 95 96 97 97 96 96 96 96 96 96 96 96 96 96 94 93 92 91 90 89 89 88 87 85 83 81 79 77 75 75 75 75 76 77 77 76 75 76 78 78 78 80 83 86 90 93 96 99 100 98 93 87 83
106 105 105 105 104 103 103 103 103 103 104 105 106 105 103 102 101 102 103 103 104 105 106 108 108 106 104 102 100 98 96 96 97 98 98 98 97 97 97 98 98 97 97 97 97 96 94 93 92 91 90 89 89 88 86 85 83 80 78 76 74 73 73 73 73 73 73 73 73 73 75 76 76 78 82 85 89 93 96 99 100 98 94 91 85
106 105 105 104 104 104 103 103 104 104 104 105 105 104 102 100 101 102 102 103 103 104 106 107 107 106 105 102 100 98 97 97 98 99 99 98 98 98 99 99 99 98 98 97 97 96 94 93 92 91 90 89 88 87 86 83 81 80 78 75 73 72 71 70 70 70 69 69 70 70 72 73 74 76 80 83 87 91 96 98 99 97 95 93 88
106 105 104 104 103 103 103 104 105 105 105 104 103 102 100 99 100 101 101 102 104 104 105 106 107 107 105 102 99 98 98 99 100 100 100 99 99 98 99 99 99 98 97 97 96 95 94 92 92 90 88 87 86 86 84 83 81 79 77 75 73 71 70 69 68 67 66 67 68 68 70 72 74 76 79 82 85 90 95 97 97 96 95 94 90
106 105 105 104 103 102 102 103 104 106 106 105 102 100 99 99 100 100 101 102 103 104 106 107 108 107 104 100 98 98 99 100 101 100 100 100 99 98 98 99 98 97 96 96 95 94 93 92 91 90 88 87 86 85 84 83 81 79 76 74 72 71 69 68 66 65 65 65 66 67 69 71 73 76 78 81 84 89 94 96 94 94 94 93 89
104 104 104 104 103 103 103 103 104 104 105 104 102 99 99 99 100 101 102 103 103 104 105 107 109 108 104 100 99 99 100 101 101 101 101 100 99 98 98 98 98 97 96 95 94 93 92 92 91 90 88 87 86 86 85 84 83 80 77 74 72 71 69 67 65 64 64 65 66 67 69 71 73 75 77 80 84 90 94 94 91 91 93 90 84
102 101 102 102 102 102 102 103 104 104 104 103 101 98 97 98 98 99 102 103 103 104 105 107 109 107 104 101 100 99 99 100 100 100 100 99 97 96 97 97 97 96 95 95 94 92 92 91 91 91 90 89 88 88 87 86 84 82 79 76 74 72 69 67 65 65 65 65 66 67 69 71 73 75 76 79 85 90 93 91 89 89 89 85 78
101 101 101 101 101 101 102 103 104 104 104 103 100 98 96 96 96 97 100 102 102 102 103 106 108 107 103 100 98 98 97 98 98 99 99 97 95 94 95 97 98 97 96 95 95 93 92 91 91 91 91 90 90 89 88 87 86 84 82 79 76 73 70 68 66 66 65 65 66 67 69 71 73 75 76 80 84 89 89 88 87 87 85 79 73
101 101 101 100 100 100 100 101 103 105 105 104 101 99 97 95 95 95 96 99 101 101 102 104 107 106 102 99 96 95 95 96 97 98 98 97 95 94 94 95 96 97 96 96 96 95 94 93 92 91 91 91 91 90 88 87 86 85 83 80 78 75 72 70 68 68 67 67 68 69 70 71 73 74 77 80 84 86 85 84 85 84 79 73 69
101 101 101 101 100 100 100 101 103 105 106 105 102 100 98 97 95 94 94 96 98 100 101 102 105 105 102 99 97 95 95 96 97 97 97 98 97 97 96 96 96 95 96 96 97 97 97 95 94 92 92 92 91 90 89 88 87 86 84 81 77 74 72 71 69 69 69 69 70 71 71 72 73 74 77 81 82 81 81 82 83 81 75 68 65
101 101 101 101 101 101 101 101 103 105 106 106 104 102 101 99 97 96 96 96 97 99 100 101 103 103 102 100 98 98 98 99 99 98 99 100 100 100 99 98 97 96 95 96 97 98 98 97 96 95 94 94 93 91 90 89 88 87 86 83 79 75 72 71 70 70 70 71 72 73 73 73 73 75 78 80 78 76 77 80 80 76 71 66 61
101 101 101 102 101 101 101 101 102 104 106 107 106 104 103 101 99 98 98 98 98 99 100 100 102 103 102 101 100 100 101 102 102 102 102 102 103 103 102 101 99 97 96 96 97 98 98 97 96 96 96 96 94 92 91 90 89 88 86 84 81 78 74 72 72 71 71 72 74 74 75 74 74 76 79 78 74 73 75 77 76 72 69 64 59
100 100 101 102 102 101 101 101 101 102 105 107 107 105 103 101 100 100 100 100 99 99 99 101 102 103 103 103 103 103 103 103 104 105 105 104 104 104 104 103 102 100 99 98 98 98 96 95 94 95 96 96 95 94 93 92 90 89 87 84 82 80 77 75 74 73 73 74 75 75 75 74 75 77 77 74 71 71 74 74 71 68 65 62 58
101 100 101 102 102 101 102 102 101 101 103 105 107 107 105 102 101 100 100 100 100 99 100 101 102 103 104 104 105 105 105 105 105 106 106 106 105 104 104 104 104 103 102 102 101 99 96 93 93 94 95 95 95 95 94 93 91 89 87 84 82 80 78 77 76 75 75 76 76 76 75 75 76 77 74 69 68 71 73 72 68 64 62 59 57
101 101 101 102 102 101 101 102 103 102 102 103 105 107 107 105 103 101 100 100 100 100 100 101 101 102 103 104 105 105 106 106 107 107 108 106 104 103 103 104 104 104 104 104 103 101 97 94 94 95 94 94 94 94 94 93 91 88 86 84 81 79 78 76 75 75 75 76 76 76 76 77 77 75 69 65 66 69 71 69 65 62 59 56 55
98 98 99 99 100 99 99 100 101 102 101 101 102 105 106 105 104 101 100 99 99 99 99 100 101 101 102 103 104 105 106 107 107 108 109 108 105 104 103 103 103 103 104 104 104 100 97 95 95 95 94 93 93 92 92 91 89 87 84 81 80 78 77 76 75 75 75 75 75 76 77 78 77 72 66 63 65 68 68 66 62 59 57 55 54
93 94 94 94 95 96 96 96 97 98 99 100 100 102 103 103 102 100 99 98 98 98 98 99 100 101 102 103 104 106 106 106 107 107 108 107 106 104 102 101 102 102 103 104 102 99 97 96 95 94 93 92 91 90 90 88 86 84 81 79 78 77 76 75 75 75 74 74 74 75 78 78 76 69 62 60 63 66 66 64 60 57 56 54 53
90 90 90 91 92 92 92 92 93 94 96 97 98 99 99 99 99 98 98 97 97 97 98 98 100 102 103 103 104 105 106 106 106 107 106 105 103 102 100 100 101 102 102 102 101 98 97 95 94 93 92 91 90 89 88 86 84 81 79 78 77 76 75 74 74 74 74 73 74 75 78 77 71 64 60 60 61 63 63 61 58 56 54 53 52
88 88 89 90 90 89 89 90 90 92 93 94 95 96 96 96 96 96 96 96 96 96 96 97 99 101 103 104 104 104 105 105 105 105 104 103 102 101 101 100 101 101 101 100 99 97 96 94 93 92 90 89 89 88 86 84 82 80 79 78 77 75 74 74 74 73 73 73 74 76 77 73 67 61 59 60 61 61 59 58 56 54 53 52 50
87 88 88 88 88 88 88 88 89 90 91 92 93 94 94 94 94 94 94 94 94 95 96 97 99 101 103 105 105 104 104 104 104 103 102 102 102 102 102 101 100 100 99 98 97 96 95 93 92 91 90 89 88 86 84 82 81 79 78 77 75 74 74 73 73 72 73 73 75 77 75 69 62 58 58 60 60 59 56 54 53 53 51 50 48
86 86 86 87 88 87 87 87 88 89 90 91 92 92 92 92 92 93 93 93 94 95 96 98 100 102 103 103 103 103 103 102 101 101 101 101 101 101 101 101 99 98 97 97 96 95 94 93 91 90 89 88 87 85 83 81 80 79 77 76 74 73 73 72 71 72 73 74 76 76 72 66 60 56 56 57 59 58 55 51 49 50 50 48 46
84 84 85 85 86 86 86 87 87 87 88 88 89 89 90 90 90 91 92 93 94 95 96 98 100 100 100 99 99 99 99 99 98 98 98 99 99 100 100 99 98 96 95 95 94 93 93 92 91 89 88 87 85 84 82 81 79 78 76 75 73 72 71 70 70 71 73 76 76 74 69 63 58 55 54 55 56 56 53 49 47 47 47 46 44
82 83 83 84 84 84 85 85 85 85 85 86 87 87 88 88 89 90 90 91 92 92 93 94 95 95 95 95 95 95 95 95 95 95 95 96 97 97 97 97 96 95 94 93 92 92 91 91 90 89 87 86 85 83 82 80 78 76 75 73 71 70 69 69 70 72 74 76 75 71 66 61 56 53 53 54 54 53 51 48 45 45 45 44 42
80 81 82 82 82 83 83 83 83 84 84 84 85 85 86 86 87 87 87 87 87 88 90 91 91 91 90 90 91 91 91 91 91 91 92 93 94 94 94 94 94 93 93 91 91 90 90 89 89 88 86 85 84 82 81 79 77 75 73 71 69 69 68 69 70 72 74 74 72 68 64 60 56 53 52 53 52 51 49 46 44 43 43 41 39
76 78 79 79 80 81 81 82 82 82 82 82 83 83 83 84 84 84 84 84 85 86 86 86 86 86 86 86 87 87 87 88 88 89 89 90 90 91 91 91 91 91 91 90 89 89 89 88 87 86 85 84 83 81 80 78 75 73 71 69 68 67 68 69 71 73 74 72 69 65 62 59 55 52 52 52 51 49 46 44 42 42 41 39 38
74 75 76 76 77 78 78 79 79 79 79 79 80 80 80 81 81 81 81 82 82 82 82 81 82 82 83 83 84 84 85 86 87 87 87 88 88 88 88 89 89 89 88 88 88 88 87 86 85 85 84 83 82 80 78 76 73 71 69 67 66 66 67 69 71 73 72 69 66 62 59 57 53 50 51 52 50 47 44 41 40 40 39 37 36
70 71 72 73 74 74 75 75 76 76 76 76 76 76 77 77 77 78 78 78 78 78 78 79 79 80 81 81 82 83 83 84 85 85 85 86 86 86 86 86 86 86 86 86 86 86 85 84 84 83 82 81 80 78 75 73 71 69 66 64 64 64 66 69 71 71 68 66 63 59 56 54 51 49 50 51 48 45 42 40 39 38 37 36 35
66 67 68 69 70 70 71 71 72 72 72 72 73 73 73 73 74 74 74 74 75 75 75 76 77 77 78 79 80 80 81 82 82 83 83 83 83 83 84 84 84 84 84 84 83 83 83 82 81 81 80 79 77 75 73 71 69 67 65 63 63 65 66 68 69 68 65 62 59 56 53 51 48 48 49 49 46 42 40 38 37 37 36 34 34
62 62 63 64 65 65 66 66 66 67 67 67 68 68 69 69 69 70 70 70 71 71 72 73 73 74 75 75 76 77 77 78 78 79 79 79 80 80 80 81 81 81 81 80 80 80 80 79 79 78 77 76 74 72 70 68 66 64 63 64 65 66 67 67 66 64 61 58 56 53 51 48 46 46 47 47 44 40 37 37 36 36 35 34 34
58 58 59 60 60 61 61 62 62 62 62 63 63 64 64 65 65 66 66 66 67 68 69 69 70 70 71 71 72 72 73 74 74 75 75 76 76 76 77 77 77 77 77 77 77 77 76 76 75 75 74 73 71 70 68 66 64 63 63 65 66 67 66 64 63 61 58 55 52 50 48 46 45 44 45 45 42 38 36 35 35 35 34 33 34
55 56 57 57 57 58 58 59 59 59 59 60 61 61 61 62 62 63 63 64 65 65 66 66 66 67 67 68 68 69 69 70 70 71 71 72 72 72 73 73 73 73 73 73 73 73 73 73 72 72 71 70 68 67 65 64 63 63 64 66 66 66 64 62 60 59 56 53 49 47 46 45 43 42 43 43 40 36 34 34 35 34 33 33 34
Wind_Direction
270 270 270 270 270 271 271 271 271 271 271 272 272 273 274 274 274 275 276 277 278 278 278 279 279 279 279 279 279 280 280 280 281 281 282 283 283 284 285 286 286 287 288 288 288 288 288 288 288 288 288 289 289 290 291 292 293 293 293 292 291 290 290 289 287 284 281 279 279 279 279 279 278 278 277 278 278 278 280 281 282 282 282 282 281
270 269 268 269 269 269 270 271 271 271 270 271 271 272 272 272 273 274 275 275 276 277 278 278 278 278 278 278 278 278 279 279 280 281 282 283 283 284 285 286 287 287 288 288 289 289 289 289 289 289 289 289 290 291 292 292 293 293 292 292 291 291 290 288 286 284 281 281 281 280 280 279 278 278 278 278 278 279 281 282 281 281 282 282 282
271 269 268 268 268 268 269 270 270 270 270 271 271 271 271 271 272 273 273 274 275 276 277 277 277 277 278 278 278 278 278 279 280 280 281 282 283 284 285 286 286 287 288 288 289 289 289 289 289 289 289 290 290 291 291 292 292 292 292 292 291 290 289 287 285 283 281 280 280 280 280 280 279 279 279 280 280 281 281 281 281 282 282 282 282
271 269 268 267 267 267 268 268 269 270 270 270 270 270 270 271 271 272 272 273 273 274 275 276 276 277 277 277 278 278 278 279 279 280 281 282 282 283 284 285 286 287 288 289 289 289 289 289 289 289 289 290 290 291 291 291 292 292 292 291 290 289 288 286 285 283 282 280 279 280 280 280 280 281 280 281 281 282 282 282 282 282 282 282 281
271 270 269 268 267 266 266 267 268 269 269 270 270 270 270 270 271 271 271 272 272 273 274 274 275 275 276 276 276 277 277 278 279 279 280 281 281 282 283 284 286 287 288 289 288 288 288 288 288 288 289 289 290 290 291 291 292 292 291 290 289 288 287 286 285 283 282 281 280 280 281 281 281 280 280 280 281 281 282 282 282 282 281 281 281
270 270 269 268 267 266 266 266 266 267 268 269 269 270 270 270 270 270 270 271 271 271 272 273 273 273 274 274 275 275 276 277 277 278 279 280 281 282 284 285 287 288 288 288 287 287 287 287 287 288 289 289 289 290 290 291 291 290 290 289 288 287 286 285 284 283 282 281 281 280 281 281 281 280 280 281 281 280 280 280 281 281 281 280 280
269 269 269 268 267 267 266 265 265 266 266 267 268 269 269 270 270 269 270 270 270 270 271 271 272 272 272 273 273 274 275 276 277 278 279 280 282 283 285 286 287 287 287 286 286 286 286 287 287 288 288 289 289 289 290 290 290 289 289 288 287 286 285 285 284 283 283 282 282 281 281 281 281 280 280 281 280 280 280 279 279 279 280 280 281
268 268 268 268 268 267 267 266 266 266 267 267 268 268 269 269 270 270 270 270 271 271 271 272 272 273 273 273 274 275 276 277 278 279 280 282 284 285 286 286 286 286 285 285 285 285 286 287 287 288 289 289 289 289 289 289 289 289 288 288 287 286 285 285 284 284 283 283 282 282 282 281 281 281 280 280 280 280 281 281 280 280 280 281 281
270 270 269 269 269 268 267 267 268 269 269 269 269 269 269 269 270 270 271 271 272 272 272 273 273 274 274 275 276 276 277 278 279 281 282 284 285 286 286 285 285 285 285 285 285 285 286 287 288 288 289 289 288 288 287 287 287 287 288 287 287 287 286 285 285 284 284 283 283 282 282 282 281 281 281 282 282 282 283 283 282 282 282 282 282
275 275 275 274 274 273 272 272 272 272 273 273 273 272 271 271 271 271 271 272 272 273 273 274 274 275 275 276 276 277 278 279 280 282 283 284 285 285 285 285 285 285 285 285 285 286 287 288 289 289 288 288 287 287 286 286 286 286 286 286 286 286 286 286 285 285 284 284 283 283 283 283 283 283 283 283 284 284 284 283 283 283 282 282 281
276 276 277 277 277 277 276 276 277 277 277 277 277 277 276 275 275 275 275 274 274 274 274 275 276 276 276 277 277 278 279 280 281 282 283 283 284 284 284 285 285 285 285 285 286 287 288 288 288 288 287 286 286 285 285 285 285 285 285 286 286 286 286 285 285 285 285 284 284 284 283 283 283 284 284 284 284 283 283 282 282 281 281 280 279
275 276 276 276 276 277 277 278 279 279 280 280 281 280 280 280 279 279 278 277 277 277 276 276 276 275 276 276 277 278 279 280 281 282 283 283 284 284 285 285 285 285 285 285 286 287 288 288 287 285 285 284 284 284 285 285 285 285 285 286 286 286 286 286 285 285 285 285 284 285 284 284 285 285 285 284 283 282 282 282 282 281 280 279 279
274 274 274 274 274 275 276 277 278 279 280 280 281 282 282 282 282 281 280 280 279 279 279 278 277 277 277 277 277 278 280 281 282 283 283 284 284 285 285 285 285 285 285 286 287 287 287 286 285 284 283 283 284 284 284 285 285 286 286 286 287 286 286 286 286 286 285 285 285 285 285 285 285 285 285 284 282 282 281 281 281 280 279 279 280
273 272 272 273 273 274 275 276 276 277 277 278 279 280 280 281 282 282 282 282 282 282 282 281 281 281 280 280 280 281 282 282 283 284 284 285 285 285 285 285 285 285 286 286 286 286 285 284 283 283 283 283 283 284 284 285 286 287 287 287 287 287 287 287 287 287 287 286 286 286 286 287 286 286 285 284 284 283 282 282 281 280 280 281 282
271 271 272 272 272 273 273 274 274 275 276 276 277 277 278 279 280 281 282 282 282 283 283 283 283 282 282 282 282 283 283 284 284 285 285 285 285 285 285 285 285 285 285 285 285 284 283 283 283 283 283 283 284 284 285 286 286 287 287 287 287 288 288 288 288 288 288 288 288 288 288 288 288 287 286 286 285 285 284 284 283 282 282 282 281
270 270 270 270 270 271 271 272 273 274 275 275 275 276 276 277 278 279 280 280 281 281 282 282 282 282 282 283 283 284 284 285 285 285 285 285 285 285 285 285 285 285 284 284 283 283 283 284 284 285 285 285 285 286 286 287 287 287 287 288 288 288 289 289 289 289 288 288 289 289 289 288 288 287 287 286 286 285 284 284 283 283 283 282 281
270 270 270 270 269 270 270 271 272 273 274 275 275 275 276 276 277 277 278 279 279 280 281 281 281 282 282 283 284 284 284 285 285 285 285 285 285 285 284 284 284 284 284 284 283 284 284 285 285 286 287 287 287 287 288 288 288 288 289 289 289 289 289 289 288 288 289 289 289 289 289 288 288 287 287 287 286 285 284 284 284 283 284 283 283
271 270 270 270 270 270 271 271 272 273 274 274 274 274 275 275 276 276 277 278 279 279 280 280 281 281 282 283 284 284 285 285 285 285 285 284 284 284 284 284 284 284 284 285 285 286 286 287 287 288 288 289 289 289 289 289 290 290 289 290 289 289 288 288 288 289 289 290 290 290 290 289 288 288 288 288 287 287 286 286 286 286 286 286 287
271 271 271 270 270 271 271 272 272 273 273 273 273 274 274 274 275 275 277 278 279 279 280 280 280 281 282 283 283 284 284 284 284 284 284 283 284 284 284 284 284 285 285 286 287 288 288 289 289 290 290 290 290 290 290 291 290 290 290 290 289 289 289 289 289 289 289 289 290 290 290 290 290 290 289 289 288 288 288 288 288 288 289 289 290
271 270 270 270 270 270 271 271 271 272 272 273 273 273 273 274 275 276 277 277 278 278 278 279 280 280 281 282 283 283 283 283 283 283 283 283 283 283 284 284 285 286 287 288 289 289 290 290 290 291 291 291 291 291 291 291 291 291 290 290 289 289 289 289 289 289 289 289 289 289 289 289 289 289 289 288 287 287 287 288 288 288 289 290 290
269 269 269 269 269 269 270 270 270 271 271 272 272 272 273 274 275 275 275 276 276 276 277 278 278 280 281 281 281 282 282 283 283 282 282 283 283 284 285 286 287 288 288 289 289 289 290 291 291 291 292 292 292 292 292 292 291 290 290 290 289 289 289 289 289 289 289 289 289 288 288 287 287 287 287 286 286 286 286 286 286 287 289 290 291
268 268 268 268 269 269 269 269 269 270 270 270 270 271 272 273 273 273 274 274 274 275 276 277 277 278 279 279 280 281 281 282 282 282 282 283 284 285 286 287 287 288 288 288 289 289 290 291 291 291 292 292 292 292 292 292 291 291 290 290 290 290 289 289 289 289 289 288 288 287 286 286 286 286 286 286 285 285 285 285 286 288 290 291 291
266 266 267 267 268 268 269 269 269 269 268 269 269 270 270 271 271 272 272 273 274 274 275 275 276 277 277 278 279 280 281 281 282 282 282 283 284 285 286 286 287 287 288 288 288 289 290 290 291 291 291 291 291 292 292 292 291 291 291 292 292 291 290 290 289 289 288 288 287 286 286 285 285 285 285 285 285 285 284 284 286 288 290 291 292
266 267 267 267 267 268 268 269 269 269 268 268 268 269 270 270 271 271 272 272 273 274 274 275 275 276 276 278 279 280 281 281 281 281 282 283 284 284 284 285 286 286 287 287 288 289 290 290 290 291 291 291 291 292 293 292 292 292 292 293 293 292 292 291 290 290 289 288 287 287 286 286 285 285 285 285 286 285 284 284 286 288 290 291 292
268 269 269 268 268 268 268 268 268 269 269 269 269 269 270 271 271 271 272 272 273 273 274 275 275 275 276 278 279 280 280 280 281 281 282 282 283 283 284 284 285 286 286 286 287 288 289 290 290 291 291 291 292 293 293 293 293 293 293 294 293 293 293 293 292 291 290 289 288 287 287 287 287 287 286 286 285 284 284 284 286 288 289 290 291
268 269 269 270 269 269 269 268 268 268 268 268 269 270 270 271 271 272 272 272 273 273 274 275 275 276 277 278 279 279 279 280 280 281 281 282 283 283 284 284 285 285 286 286 287 288 289 290 290 291 291 292 293 293 294 294 295 295 295 295 295 295 294 293 293 292 291 290 289 289 288 288 288 288 287 286 285 284 283 284 286 287 287 288 291
267 267 268 268 269 269 269 269 269 268 268 268 268 268 268 269 269 270 271 271 272 272 273 274 275 276 277 277 278 278 279 279 280 280 281 281 283 284 284 284 285 285 286 286 287 288 288 289 289 290 291 292 293 293 294 295 295 296 296 296 296 295 295 294 293 292 291 290 290 290 289 289 288 288 287 286 285 283 284 286 287 287 287 288 290
265 265 266 266 267 267 268 268 269 269 269 268 268 268 267 267 268 268 269 270 271 271 272 273 273 274 275 276 276 277 277 278 279 279 280 281 282 282 283 283 284 285 286 286 287 287 288 288 289 289 290 291 292 292 293 294 295 296 297 297 297 296 296 295 294 293 292 290 289 289 288 288 287 287 286 286 285 284 285 287 287 287 287 289 290
264 264 264 265 265 266 266 267 268 269 269 269 269 269 268 268 268 268 269 271 271 272 272 273 274 274 275 275 276 276 277 278 278 279 280 281 281 281 281 281 283 284 285 286 286 287 287 288 288 289 289 290 291 292 293 294 295 296 296 297 297 297 297 296 296 295 293 292 290 289 289 288 288 287 286 286 285 285 287 287 287 286 287 289 290
262 263 263 264 264 264 264 265 266 268 269 269 269 269 269 269 269 268 269 270 271 272 273 274 275 276 277 278 279 279 279 279 279 280 281 282 282 282 281 281 282 283 283 284 285 286 287 288 288 289 289 290 291 292 293 294 295 296 297 297 297 297 297 297 297 296 295 294 293 291 290 289 288 287 286 285 285 287 288 288 287 287 288 289 289
261 262 262 263 263 263 263 264 265 266 267 268 269 269 269 269 269 269 269 269 270 271 272 274 275 277 278 279 280 280 280 280 280 281 281 282 282 282 282 283 283 283 283 283 284 284 285 287 288 289 290 290 291 292 293 294 295 296 297 297 297 297 297 297 297 297 296 295 294 292 291 289 288 287 286 285 287 289 289 287 286 287 289 289 288
260 261 262 262 262 262 263 263 264 265 266 267 268 268 269 269 269 270 269 269 269 270 271 273 274 276 277 278 279 279 279 280 280 281 281 281 282 282 283 283 284 284 284 283 283 283 284 285 287 288 289 290 291 292 293 294 295 296 296 297 297 298 298 298 298 297 296 295 294 293 291 289 288 287 286 287 289 290 288 286 286 287 288 288 287
260 260 261 261 262 262 262 262 263 264 265 267 267 268 268 268 269 269 269 269 269 269 270 271 273 274 275 277 277 278 278 278 279 279 280 281 282 282 283 284 284 285 285 284 284 284 284 285 286 287 287 289 290 292 293 294 295 295 296 296 297 298 299 299 299 298 297 296 295 293 291 289 288 287 287 289 291 291 288 286 286 287 288 288 287
261 261 261 261 261 262 262 262 262 262 263 265 267 268 268 268 268 268 269 269 269 269 269 270 271 273 274 275 276 277 277 277 278 278 279 280 280 281 282 284 285 285 285 285 285 285 286 286 287 287 287 288 289 291 292 293 294 295 295 296 297 298 298 299 299 299 298 296 295 293 291 290 288 287 288 291 292 290 288 287 287 287 287 287 286
263 262 262 262 262 262 262 262 263 263 263 263 265 267 268 269 269 269 269 269 269 269 269 270 270 271 272 273 274 275 276 277 277 278 278 279 280 281 281 282 283 284 284 285 285 286 287 288 288 287 288 288 289 290 291 292 293 294 295 295 296 297 298 298 298 298 297 296 294 293 291 290 288 288 290 293 292 289 287 287 288 288 287 286 284
263 263 263 263 263 263 263 263 263 263 263 263 263 265 266 268 268 268 268 268 268 268 269 269 270 271 271 272 273 273 274 274 275 276 277 279 280 280 280 281 282 283 284 284 285 286 287 288 288 288 288 289 289 290 291 291 292 293 294 295 296 296 297 298 298 297 296 295 294 293 291 289 288 289 292 293 291 288 286 286 287 287 286 285 283
264 264 264 264 263 263 263 263 263 263 264 264 264 264 265 266 267 267 267 267 267 267 268 268 269 270 270 271 271 272 272 273 274 275 276 277 278 279 280 281 282 282 283 283 285 286 287 287 287 288 289 289 290 290 290 291 291 292 293 294 295 296 297 297 297 296 295 295 294 292 290 288 288 290 293 292 289 287 286 286 287 286 285 284 282
265 265 264 264 263 263 263 263 262 262 263 263 263 263 264 265 265 266 266 266 266 266 267 267 268 269 269 269 270 270 272 273 274 275 276 277 279 280 281 281 281 282 282 283 284 286 286 287 287 288 289 289 290 290 290 291 292 293 294 295 296 296 297 297 296 295 295 294 293 291 288 287 288 292 293 291 288 286 286 286 286 286 284 282 280
265 265 264 264 264 263 263 262 262 262 262 262 263 263 263 264 264 265 265 265 266 266 266 267 267 267 268 269 270 271 271 272 273 275 276 278 279 280 281 281 281 281 282 283 284 285 286 286 287 288 288 289 289 289 290 291 292 293 294 295 296 296 297 296 296 295 295 294 292 289 287 287 290 294 293 290 287 285 285 285 285 285 283 281 279
265 265 265 265 264 264 263 263 262 262 262 262 263 263 263 264 264 265 265 266 266 266 266 266 266 266 267 268 269 271 272 273 274 276 277 278 278 279 279 279 280 280 281 282 283 284 285 286 287 287 288 288 288 289 290 292 293 293 294 295 296 296 296 296 296 295 295 294 291 288 287 289 292 293 292 289 287 285 284 284 284 283 281 279 277
264 264 264 264 264 264 264 263 263 262 262 262 263 263 264 264 265 265 265 265 265 265 264 264 264 265 266 268 269 270 271 272 274 275 275 276 276 277 277 278 279 280 281 282 282 283 284 285 286 286 287 287 288 289 291 292 292 293 294 294 295 295 295 295 295 295 295 293 290 287 288 290 292 292 290 288 286 284 284 284 283 282 280 277 274
263 263 263 263 264 264 264 264 264 263 263 263 264 264 264 264 264 264 264 264 263 263 263 263 264 265 267 267 268 269 270 271 271 272 272 273 274 275 276 277 279 280 280 281 282 282 283 284 285 286 286 287 288 290 291 291 292 293 293 294 294 294 295 295 295 295 293 291 288 287 289 291 292 291 289 287 284 284 284 284 282 280 277 274 271
261 262 262 262 263 263 263 264 264 264 264 264 264 264 264 264 263 263 263 263 263 264 264 264 264 265 265 266 267 267 268 269 270 270 271 272 272 274 275 276 278 279 279 280 281 281 282 283 284 285 286 287 288 289 290 291 291 292 293 293 294 294 295 295 295 293 291 288 287 289 291 292 291 290 288 285 283 283 284 284 281 278 274 271 268
260 261 261 261 262 262 262 263 263 263 263 263 263 263 263 263 263 263 263 263 263 262 262 262 263 264 265 265 266 267 268 269 270 270 270 271 272 273 274 275 276 277 278 279 280 281 282 283 284 285 286 287 288 288 289 290 291 291 292 293 294 295 295 295 293 291 288 287 288 290 292 292 292 290 287 284 283 283 283 282 279 275 271 268 265
261 260 260 261 261 261 261 261 261 261 261 261 261 262 262 262 262 262 262 262 261 261 262 263 264 265 266 266 267 267 268 269 269 270 270 270 271 272 273 274 275 276 277 279 280 280 281 282 283 284 285 286 287 288 288 289 290 290 291 292 294 294 294 293 290 288 286 287 289 291 292 291 291 289 286 283 282 282 282 280 276 272 268 265 261
260 260 260 260 260 260 261 261 261 262 262 262 262 262 262 262 262 262 262 262 263 264 264 265 266 266 266 267 267 268 268 268 269 269 270 270 271 272 273 274 275 276 277 278 278 279 280 281 282 283 284 285 286 287 287 288 289 290 291 292 293 293 291 289 287 285 285 287 289 290 290 290 289 286 284 282 282 281 280 278 273 269 266 262 258
260 260 260 261 261 261 261 261 262 262 262 262 262 263 263 263 263 263 264 264 265 265 266 266 266 267 267 267 267 267 267 268 268 269 269 270 271 272 272 273 274 275 276 277 277 279 280 281 282 283 283 284 285 286 287 288 288 289 290 290 290 289 287 285 283 283 285 287 288 288 288 288 286 284 282 280 280 280 278 274 270 266 263 259 254
260 260 260 261 261 261 261 262 262 263 263 263 263 264 264 264 264 265 265 265 266 266 266 266 266 266 266 266 266 266 267 267 268 268 269 270 270 271 272 273 273 274 275 276 277 278 279 280 281 282 282 283 284 285 286 287 288 289 289 289 287 285 283 282 282 283 285 286 286 286 286 285 284 282 280 278 278 277 275 271 267 263 260 255 250
261 261 261 261 262 262 262 263 263 263 263 264 264 264 264 264 265 265 265 265 265 265 265 265 265 265 265 265 266 266 267 267 267 268 268 269 269 270 271 272 273 273 274 275 276 277 278 279 280 281 282 283 284 285 286 287 288 288 288 286 284 282 281 281 282 283 284 284 285 285 284 283 281 279 277 276 275 274 271 267 263 260 256 251 246
261 261 261 261 261 262 262 262 262 262 263 262 262 262 263 263 263 263 263 263 263 263 263 263 264 264 264 265 265 266 266 266 267 267 268 268 269 270 270 271 272 273 274 275 276 277 278 279 280 281 282 283 283 284 286 286 287 287 285 284 282 281 281 282 282 283 283 283 283 283 282 280 279 276 274 273 272 271 267 263 259 256 252 247 242
261 261 261 261 261 261 261 261 261 261 261 261 261 261 261 261 261 261 262 262 262 262 263 263 263 264 264 265 265 265 265 266 266 267 267 268 269 269 270 271 272 273 274 275 276 277 278 278 279 280 281 282 283 284 285 285 285 284 283 281 281 281 282 282 282 283 283 283 282 281 280 278 276 274 271 270 270 268 264 259 256 252 248 242 238
Height
10545 10546 10546 10546 10547 10546 10545 10543 10542 10542 10542 10541 10540 10538 10535 10531 10527 10525 10524 10520 10516 10513 10511 10509 10507 10506 10503 10501 10499 10496 10493 10491 10489 10487 10484 10481 10479 10475 10472 10468 10464 10462 10459 10456 10453 10450 10446 10442 10440 10437 10434 10430 10426 10422 10420 10417 10415 10412 10409 10407 10404 10401 10402 10403 10405 10408 10398 10380 10371 10375 10379 10379 10374 10366 10362 10361 10358 10355 10356 10354 10352 10350 10348 10345 10344
10530 10531 10533 10533 10534 10532 10530 10530 10529 10529 10528 10528 10527 10525 10522 10519 10516 10515 10514 10509 10505 10501 10498 10496 10494 10492 10490 10488 10486 10483 10480 10478 10476 10473 10470 10467 10464 10461 10457 10454 10450 10447 10444 10442 10439 10435 10431 10427 10424 10421 10418 10414 10410 10406 10403 10400 10398 10396 10392 10390 10388 10385 10385 10386 10386 10389 10388 10374 10358 10354 10358 10363 10360 10351 10346 10347 10345 10343 10345 10342 10338 10337 10334 10330 10328
10516 10517 10519 10520 10518 10516 10516 10515 10514 10513 10513 10512 10511 10508 10507 10506 10505 10504 10500 10497 10493 10488 10484 10482 10480 10478 10476 10474 10471 10468 10466 10465 10462 10460 10457 10454 10451 10447 10444 10440 10437 10434 10431 10427 10424 10420 10416 10412 10408 10405 10402 10398 10394 10390 10387 10384 10382 10380 10377 10373 10372 10370 10368 10368 10368 10369 10372 10366 10350 10339 10341 10346 10344 10337 10332 10330 10328 10331 10333 10327 10322 10322 10321 10317 10313
10501 10502 10504 10504 10502 10502 10501 10499 10497 10497 10496 10495 10493 10491 10491 10492 10492 10490 10485 10482 10479 10475 10471 10469 10467 10465 10462 10459 10456 10454 10452 10449 10448 10446 10443 10440 10437 10434 10431 10428 10425 10421 10417 10413 10409 10405 10401 10396 10392 10389 10386 10382 10378 10375 10372 10369 10367 10364 10362 10358 10357 10356 10353 10351 10352 10351 10353 10353 10342 10328 10326 10330 10330 10323 10317 10315 10314 10313 10314 10312 10308 10306 10304 10300 10297
10483 10485 10486 10487 10486 10487 10485 10483 10481 10480 10478 10476 10474 10474 10475 10477 10476 10473 10470 10467 10464 10461 10458 10455 10453 10451 10448 10445 10442 10439 10437 10435 10433 10431 10428 10426 10424 10421 10418 10416 10412 10408 10403 10398 10394 10389 10385 10381 10377 10374 10371 10367 10363 10360 10356 10354 10352 10349 10347 10344 10342 10341 10339 10336 10335 10335 10334 10336 10332 10321 10313 10314 10317 10310 10301 10302 10304 10299 10294 10296 10295 10290 10288 10285 10279
10465 10466 10468 10469 10470 10471 10469 10467 10465 10462 10460 10458 10457 10457 10458 10459 10457 10454 10452 10450 10448 10446 10443 10440 10437 10436 10434 10431 10427 10424 10422 10420 10419 10417 10414 10412 10410 10408 10405 10402 10398 10393 10388 10383 10378 10374 10370 10366 10362 10359 10357 10353 10348 10345 10341 10338 10337 10334 10331 10330 10328 10326 10324 10321 10319 10319 10318 10317 10316 10312 10304 10299 10301 10298 10287 10285 10291 10288 10280 10283 10284 10275 10270 10271 10267
10448 10449 10450 10452 10454 10454 10452 10450 10448 10446 10444 10442 10440 10439 10440 10439 10437 10435 10433 10432 10430 10428 10426 10423 10421 10419 10418 10415 10412 10409 10407 10406 10404 10402 10400 10399 10397 10394 10391 10386 10382 10377 10372 10367 10362 10358 10354 10351 10348 10345 10341 10338 10334 10330 10327 10324 10322 10319 10317 10315 10314 10312 10310 10307 10305 10303 10302 10301 10298 10296 10294 10287 10283 10283 10278 10270 10273 10273 10264 10267 10276 10268 10255 10254 10254
10435 10435 10436 10437 10438 10437 10435 10433 10432 10432 10431 10429 10426 10424 10422 10421 10418 10416 10414 10413 10412 10410 10408 10406 10404 10402 10400 10398 10396 10394 10392 10390 10389 10386 10386 10384 10382 10379 10374 10370 10366 10360 10356 10351 10346 10343 10340 10336 10334 10331 10327 10323 10319 10316 10313 10310 10307 10305 10302 10300 10299 10297 10295 10293 10291 10288 10286 10286 10283 10279 10279 10276 10268 10266 10265 10258 10255 10258 10250 10245 10253 10255 10244 10242 10242
10421 10422 10422 10423 10423 10420 10418 10418 10418 10417 10416 10414 10412 10410 10408 10406 10403 10399 10397 10395 10394 10393 10391 10388 10386 10385 10383 10381 10380 10378 10376 10374 10372 10371 10371 10369 10366 10362 10358 10353 10349 10344 10339 10335 10331 10327 10325 10323 10319 10316 10312 10308 10305 10303 10300 10296 10294 10291 10288 10286 10283 10282 10280 10277 10275 10273 10271 10270 10268 10264 10262 10260 10253 10248 10250 10245 10237 10240 10238 10228 10230 10234 10228 10227 10231
10405 10404 10405 10406 10404 10401 10400 10401 10401 10400 10398 10396 10394 10393 10392 10390 10387 10384 10382 10380 10378 10376 10373 10371 10369 10368 10367 10365 10363 10362 10360 10359 10357 10357 10357 10354 10350 10346 10341 10337 10333 10328 10323 10319 10316 10314 10311 10309 10305 10301 10297 10294 10291 10289 10286 10283 10281 10278 10275 10272 10269 10267 10264 10262 10258 10256 10256 10255 10252 10248 10246 10244 10238 10232 10233 10231 10224 10223 10222 10215 10214 10217 10211 10210 10217
10388 10388 10389 10389 10386 10383 10383 10382 10380 10380 10378 10376 10375 10374 10372 10371 10370 10368 10367 10365 10362 10359 10357 10356 10354 10352 10350 10349 10347 10346 10346 10344 10344 10344 10342 10338 10334 10329 10325 10322 10317 10312 10308 10304 10302 10300 10298 10295 10291 10286 10283 10280 10278 10276 10273 10270 10267 10264 10261 10258 10255 10253 10249 10247 10244 10241 10241 10240 10237 10233 10229 10229 10226 10218 10215 10215 10212 10210 10207 10202 10199 10199 10199 10196 10198
10372 10372 10374 10372 10369 10368 10367 10364 10363 10362 10360 10358 10356 10354 10352 10351 10352 10351 10349 10347 10345 10343 10342 10340 10338 10336 10335 10334 10332 10331 10331 10330 10330 10329 10326 10321 10318 10313 10309 10306 10301 10296 10293 10290 10288 10286 10283 10281 10277 10273 10270 10268 10265 10262 10259 10257 10253 10250 10248 10244 10241 10238 10234 10231 10229 10226 10226 10225 10223 10218 10212 10211 10212 10205 10198 10196 10196 10195 10193 10191 10186 10181 10183 10183 10179
10357 10359 10359 10356 10355 10354 10351 10349 10349 10347 10346 10344 10340 10338 10336 10335 10334 10333 10331 10329 10327 10326 10325 10323 10322 10321 10319 10317 10316 10315 10316 10315 10314 10313 10309 10305 10301 10298 10294 10290 10285 10282 10278 10276 10274 10272 10269 10267 10263 10260 10258 10255 10252 10249 10246 10243 10239 10236 10234 10230 10226 10223 10218 10215 10211 10210 10210 10207 10206 10204 10196 10193 10195 10189 10182 10178 10177 10177 10176 10177 10174 10165 10164 10167 10164
10342 10343 10343 10342 10341 10339 10335 10333 10333 10333 10331 10330 10327 10325 10323 10321 10318 10316 10314 10312 10311 10309 10308 10307 10306 10304 10302 10300 10300 10301 10300 10299 10298 10297 10293 10289 10286 10282 10279 10275 10270 10268 10265 10262 10261 10258 10255 10253 10250 10247 10245 10241 10238 10236 10233 10230 10226 10223 10219 10215 10212 10207 10202 10199 10194 10192 10191 10187 10186 10187 10180 10176 10175 10171 10166 10160 10157 10156 10155 10157 10158 10150 10147 10151 10149
10327 10327 10327 10327 10324 10320 10317 10316 10316 10317 10316 10315 10314 10312 10310 10307 10305 10302 10300 10298 10296 10294 10293 10291 10290 10287 10285 10284 10285 10286 10285 10283 10283 10281 10277 10273 10271 10267 10263 10260 10257 10254 10251 10249 10247 10244 10242 10240 10236 10234 10231 10227 10224 10222 10219 10217 10213 10210 10206 10201 10198 10193 10187 10183 10180 10176 10173 10169 10167 10168 10164 10160 10156 10152 10147 10143 10140 10136 10134 10136 10135 10128 10130 10135 10135
10312 10312 10311 10310 10306 10302 10301 10301 10302 10302 10301 10301 10300 10298 10296 10294 10291 10289 10286 10284 10282 10280 10278 10276 10274 10271 10270 10270 10272 10271 10269 10268 10268 10265 10261 10258 10256 10252 10248 10245 10243 10241 10238 10236 10234 10231 10229 10226 10223 10220 10216 10212 10209 10206 10204 10203 10200 10196 10193 10188 10185 10181 10174 10169 10166 10161 10157 10155 10153 10150 10149 10145 10141 10137 10131 10125 10123 10119 10116 10120 10116 10108 10111 10116 10116
10295 10295 10294 10292 10289 10287 10287 10287 10287 10287 10286 10286 10284 10282 10280 10279 10277 10275 10272 10270 10268 10266 10263 10260 10258 10256 10255 10257 10257 10255 10255 10254 10253 10249 10245 10242 10241 10238 10234 10231 10229 10227 10224 10222 10219 10217 10215 10212 10209 10206 10202 10198 10194 10191 10189 10189 10187 10183 10181 10177 10173 10168 10163 10157 10153 10148 10143 10141 10138 10134 10133 10130 10126 10123 10117 10109 10105 10099 10097 10102 10099 10092 10093 10095 10095
10276 10277 10277 10274 10271 10271 10272 10272 10271 10271 10271 10270 10268 10267 10265 10264 10263 10260 10257 10255 10254 10252 10249 10245 10243 10242 10241 10242 10242 10241 10241 10240 10237 10234 10231 10228 10226 10224 10220 10217 10216 10213 10210 10207 10205 10202 10199 10197 10195 10192 10188 10184 10180 10177 10175 10174 10173 10171 10168 10166 10162 10156 10151 10147 10142 10136 10132 10128 10125 10120 10117 10114 10110 10108 10104 10096 10089 10082 10077 10079 10078 10073 10074 10075 10073
10257 10259 10258 10256 10254 10255 10255 10255 10255 10255 10254 10253 10252 10251 10250 10248 10247 10245 10243 10242 10241 10237 10234 10231 10228 10227 10227 10228 10228 10228 10227 10225 10222 10219 10216 10214 10213 10210 10207 10204 10202 10199 10196 10193 10190 10187 10184 10182 10180 10177 10174 10170 10166 10163 10161 10160 10159 10158 10155 10153 10151 10145 10140 10136 10130 10126 10122 10117 10113 10109 10104 10099 10095 10093 10090 10083 10075 10067 10061 10059 10057 10054 10055 10057 10055
10239 10240 10239 10239 10239 10239 10239 10240 10240 10239 10238 10237 10236 10235 10234 10233 10232 10232 10230 10228 10227 10224 10220 10217 10213 10212 10213 10214 10214 10214 10212 10211 10208 10205 10203 10202 10200 10197 10193 10191 10188 10185 10182 10179 10175 10172 10170 10167 10165 10162 10160 10157 10153 10149 10148 10146 10145 10145 10142 10140 10138 10134 10129 10125 10120 10115 10113 10108 10104 10099 10094 10090 10085 10081 10077 10071 10064 10057 10050 10045 10042 10038 10038 10041 10040
10221 10221 10222 10222 10223 10224 10224 10224 10224 10223 10223 10222 10220 10219 10220 10220 10219 10218 10216 10215 10213 10210 10206 10202 10199 10199 10200 10200 10200 10199 10198 10197 10194 10192 10189 10188 10186 10183 10179 10176 10174 10171 10168 10165 10161 10158 10156 10153 10151 10148 10146 10143 10140 10136 10134 10133 10131 10131 10129 10127 10126 10123 10119 10116 10110 10105 10101 10098 10094 10090 10083 10080 10077 10071 10065 10059 10053 10046 10039 10034 10029 10025 10024 10024 10024
10203 10205 10205 10206 10206 10207 10209 10209 10208 10209 10208 10206 10205 10204 10206 10207 10206 10204 10202 10201 10199 10197 10192 10187 10185 10186 10186 10186 10187 10186 10185 10184 10181 10177 10175 10173 10171 10169 10165 10161 10159 10157 10154 10151 10147 10144 10143 10141 10138 10135 10132 10130 10127 10123 10122 10120 10118 10116 10114 10113 10112 10110 10107 10104 10100 10095 10091 10086 10083 10079 10073 10068 10067 10062 10054 10047 10041 10034 10027 10022 10017 10013 10010 10007 10006
10185 10187 10189 10190 10190 10190 10192 10192 10192 10193 10193 10191 10190 10190 10192 10193 10191 10190 10188 10186 10184 10183 10179 10174 10171 10171 10172 10173 10174 10173 10172 10169 10166 10162 10160 10158 10157 10155 10151 10146 10145 10144 10140 10137 10134 10131 10130 10128 10124 10122 10120 10117 10114 10111 10109 10107 10105 10102 10100 10099 10097 10096 10094 10091 10088 10084 10080 10075 10071 10067 10062 10057 10055 10051 10043 10036 10030 10023 10016 10011 10007 10002 9998 9994 9991
10166 10169 10170 10172 10173 10173 10174 10174 10172 10172 10174 10175 10175 10176 10177 10177 10176 10175 10173 10171 10169 10167 10164 10160 10157 10156 10158 10160 10161 10160 10157 10154 10150 10148 10146 10144 10143 10142 10138 10133 10131 10130 10127 10124 10121 10118 10117 10114 10111 10108 10106 10103 10100 10098 10096 10094 10091 10088 10086 10085 10083 10082 10080 10077 10074 10071 10067 10063 10059 10055 10051 10046 10042 10038 10032 10025 10018 10010 10003 9999 9996 9992 9987 9982 9979
10148 10149 10149 10151 10153 10154 10156 10156 10154 10153 10154 10155 10158 10160 10160 10160 10159 10158 10157 10156 10154 10151 10148 10144 10141 10140 10144 10147 10147 10145 10142 10138 10135 10133 10131 10130 10129 10128 10125 10121 10119 10117 10114 10110 10107 10106 10104 10101 10097 10095 10093 10090 10087 10084 10082 10079 10077 10075 10073 10071 10069 10068 10066 10063 10061 10058 10054 10051 10047 10043 10039 10035 10030 10025 10020 10014 10006 9997 9991 9988 9987 9981 9974 9971 9970
10131 10131 10131 10131 10133 10135 10136 10136 10136 10136 10136 10137 10141 10143 10143 10143 10142 10140 10139 10138 10137 10135 10132 10129 10125 10124 10129 10132 10131 10129 10127 10123 10121 10119 10117 10115 10114 10113 10111 10108 10105 10103 10101 10097 10094 10093 10090 10087 10084 10081 10079 10076 10074 10071 10068 10065 10062 10060 10058 10057 10055 10054 10052 10050 10047 10044 10041 10038 10034 10030 10026 10022 10018 10012 10007 10001 9993 9984 9977 9976 9977 9972 9963 9961 9962
10115 10116 10115 10115 10116 10117 10118 10118 10117 10117 10118 10120 10124 10127 10128 10127 10127 10125 10123 10121 10120 10119 10118 10114 10109 10110 10114 10117 10117 10116 10113 10110 10107 10105 10102 10101 10101 10099 10096 10094 10091 10089 10087 10084 10081 10080 10078 10074 10071 10068 10065 10063 10060 10058 10055 10051 10048 10046 10044 10042 10041 10040 10038 10036 10034 10031 10028 10025 10021 10018 10013 10009 10005 10000 9995 9988 9979 9971 9965 9963 9963 9959 9952 9950 9952
10097 10099 10100 10100 10101 10102 10101 10101 10100 10099 10099 10101 10106 10109 10111 10112 10112 10110 10108 10106 10104 10105 10104 10100 10095 10096 10101 10104 10104 10102 10100 10097 10094 10090 10087 10087 10088 10086 10082 10078 10076 10075 10073 10070 10067 10066 10064 10061 10058 10056 10053 10050 10047 10045 10042 10038 10035 10033 10030 10028 10027 10026 10024 10022 10020 10017 10014 10011 10008 10004 10000 9996 9991 9986 9981 9975 9966 9959 9955 9951 9948 9944 9941 9940 9940
10079 10081 10082 10084 10085 10086 10085 10084 10083 10082 10082 10084 10088 10091 10093 10095 10096 10095 10093 10091 10089 10088 10088 10084 10081 10081 10086 10090 10091 10090 10088 10084 10079 10075 10074 10073 10073 10071 10068 10065 10063 10062 10060 10057 10054 10052 10050 10048 10046 10043 10040 10038 10034 10032 10029 10026 10023 10020 10018 10015 10014 10012 10010 10007 10005 10001 9998 9995 9992 9989 9986 9982 9978 9972 9967 9961 9954 9948 9943 9939 9934 9930 9930 9930 9928
10060 10063 10065 10066 10068 10069 10069 10070 10068 10067 10067 10068 10071 10073 10076 10078 10079 10079 10079 10077 10074 10073 10072 10069 10065 10064 10067 10071 10074 10074 10072 10067 10063 10061 10060 10057 10055 10054 10053 10051 10051 10050 10048 10045 10042 10039 10037 10035 10033 10031 10028 10025 10021 10018 10016 10013 10010 10007 10004 10002 10001 10000 9997 9993 9991 9987 9983 9979 9975 9972 9970 9967 9964 9960 9953 9948 9943 9938 9932 9925 9920 9918 9919 9920 9917
10042 10046 10048 10050 10051 10051 10052 10054 10055 10053 10052 10052 10054 10057 10059 10061 10062 10063 10062 10061 10059 10059 10059 10057 10053 10051 10053 10055 10055 10055 10053 10050 10049 10048 10045 10041 10039 10038 10037 10036 10036 10037 10036 10033 10029 10027 10025 10022 10020 10018 10014 10011 10008 10005 10003 10000 9997 9994 9991 9988 9986 9986 9984 9981 9977 9973 9969 9964 9960 9956 9954 9952 9949 9945 9940 9935 9933 9929 9921 9912 9908 9907 9907 9908 9907
10025 10029 10031 10032 10034 10035 10036 10038 10040 10039 10038 10037 10038 10040 10042 10044 10046 10046 10046 10045 10044 10044 10046 10046 10043 10040 10040 10040 10040 10039 10037 10035 10034 10032 10029 10027 10025 10023 10021 10021 10021 10021 10021 10019 10016 10014 10012 10009 10007 10005 10001 9997 9995 9992 9990 9988 9985 9982 9979 9976 9973 9971 9970 9968 9964 9960 9956 9951 9947 9942 9939 9937 9935 9931 9926 9923 9921 9916 9909 9902 9899 9898 9896 9896 9895
10007 10012 10014 10014 10016 10018 10020 10022 10024 10024 10023 10021 10022 10024 10026 10029 10030 10030 10029 10030 10030 10031 10033 10033 10031 10028 10027 10026 10025 10024 10023 10021 10019 10016 10014 10013 10011 10009 10007 10006 10005 10005 10004 10003 10001 9999 9997 9996 9995 9992 9989 9985 9982 9980 9978 9976 9973 9970 9967 9964 9961 9958 9957 9954 9951 9947 9942 9937 9933 9929 9926 9923 9921 9917 9914 9911 9907 9902 9896 9891 9889 9888 9886 9885 9883
9988 9993 9996 9997 9999 10001 10004 10005 10007 10008 10008 10007 10006 10007 10009 10012 10013 10013 10014 10016 10016 10018 10019 10019 10018 10016 10015 10013 10011 10010 10008 10006 10004 10002 10000 9999 9997 9996 9994 9992 9991 9989 9988 9985 9983 9982 9982 9981 9980 9978 9975 9973 9970 9967 9965 9963 9961 9958 9955 9952 9950 9947 9944 9942 9938 9935 9930 9924 9918 9914 9911 9909 9906 9904 9903 9901 9896 9888 9882 9880 9879 9879 9877 9875 9873
9970 9974 9977 9979 9982 9985 9988 9989 9990 9991 9993 9993 9993 9992 9992 9993 9996 9998 10000 10001 10002 10002 10004 10004 10004 10003 10001 9999 9997 9995 9993 9991 9989 9987 9985 9983 9983 9983 9982 9980 9978 9976 9973 9970 9967 9966 9966 9966 9965 9963 9961 9959 9957 9955 9952 9950 9948 9946 9943 9940 9938 9936 9933 9930 9927 9922 9917 9911 9905 9900 9897 9894 9892 9892 9893 9891 9885 9878 9872 9870 9869 9868 9867 9866 9864
9954 9958 9961 9963 9966 9969 9970 9971 9973 9974 9976 9978 9978 9978 9977 9978 9980 9983 9984 9986 9986 9987 9988 9988 9988 9988 9986 9983 9982 9980 9978 9977 9975 9972 9970 9969 9969 9969 9968 9967 9965 9964 9960 9957 9954 9953 9952 9952 9950 9949 9947 9946 9944 9942 9940 9938 9935 9934 9932 9929 9927 9924 9921 9918 9914 9910 9905 9899 9893 9888 9884 9881 9880 9881 9882 9880 9873 9867 9863 9861 9860 9859 9857 9856 9854
9939 9942 9945 9947 9949 9950 9952 9954 9956 9958 9959 9960 9962 9962 9963 9964 9965 9966 9967 9969 9970 9971 9971 9972 9972 9971 9969 9967 9965 9963 9962 9961 9959 9958 9957 9956 9956 9956 9955 9954 9953 9951 9947 9944 9942 9940 9939 9938 9936 9935 9934 9932 9930 9929 9927 9925 9923 9921 9919 9917 9915 9913 9910 9906 9902 9898 9893 9887 9882 9877 9873 9869 9869 9871 9872 9869 9863 9857 9853 9852 9851 9849 9848 9846 9845
9924 9926 9928 9929 9930 9932 9935 9938 9940 9941 9942 9943 9945 9946 9947 9948 9949 9950 9951 9951 9952 9953 9954 9955 9955 9954 9952 9949 9948 9946 9946 9945 9944 9943 9942 9942 9942 9942 9942 9941 9940 9937 9934 9931 9929 9928 9926 9924 9923 9922 9920 9919 9918 9916 9914 9912 9911 9909 9907 9904 9902 9900 9898 9895 9890 9885 9881 9876 9872 9867 9862 9860 9861 9861 9860 9857 9853 9849 9845 9843 9842 9840 9838 9837 9836
9908 9909 9910 9911 9913 9916 9919 9921 9923 9924 9925 9927 9928 9929 9930 9931 9932 9933 9934 9935 9935 9936 9937 9938 9938 9936 9934 9931 9930 9930 9931 9931 9930 9929 9929 9929 9929 9929 9928 9926 9925 9923 9921 9919 9917 9915 9913 9912 9911 9910 9908 9907 9905 9903 9901 9900 9898 9896 9894 9892 9890 9888 9886 9882 9878 9873 9868 9864 9860 9855 9851 9851 9852 9852 9849 9845 9842 9840 9837 9835 9833 9832 9829 9828 9827
9893 9893 9893 9894 9897 9900 9902 9904 9906 9908 9908 9909 9910 9911 9912 9914 9916 9916 9917 9918 9919 9920 9921 9922 9921 9919 9916 9915 9915 9916 9917 9917 9917 9918 9918 9917 9916 9915 9913 9911 9910 9909 9907 9906 9904 9902 9901 9900 9898 9897 9895 9894 9892 9891 9889 9887 9886 9884 9882 9881 9879 9877 9873 9870 9866 9861 9856 9852 9848 9843 9841 9842 9844 9842 9838 9834 9830 9829 9829 9827 9825 9822 9821 9820 9819
9877 9879 9880 9880 9881 9884 9886 9888 9890 9891 9892 9893 9894 9896 9897 9899 9900 9900 9901 9902 9903 9905 9906 9906 9905 9904 9903 9903 9905 9905 9905 9905 9906 9907 9906 9904 9902 9900 9899 9897 9896 9895 9895 9893 9892 9890 9889 9887 9886 9884 9883 9881 9880 9878 9877 9875 9874 9872 9871 9869 9868 9865 9862 9858 9854 9849 9845 9840 9836 9833 9832 9833 9834 9833 9829 9825 9820 9818 9819 9819 9817 9814 9812 9812 9811
9864 9866 9867 9866 9867 9870 9871 9872 9874 9876 9877 9879 9880 9881 9883 9884 9885 9885 9887 9887 9889 9891 9893 9893 9893 9893 9893 9894 9895 9894 9894 9894 9894 9894 9893 9891 9889 9887 9885 9884 9883 9883 9882 9880 9879 9878 9877 9875 9873 9872 9871 9869 9868 9866 9865 9864 9863 9861 9860 9858 9856 9854 9850 9846 9842 9838 9833 9828 9824 9823 9823 9824 9824 9822 9819 9816 9812 9810 9809 9810 9809 9806 9804 9803 9804
9851 9852 9853 9853 9855 9857 9857 9858 9860 9862 9863 9865 9866 9866 9868 9869 9870 9872 9874 9876 9878 9880 9881 9881 9881 9881 9881 9881 9881 9880 9880 9880 9880 9880 9879 9878 9876 9875 9873 9872 9871 9870 9869 9868 9867 9866 9864 9863 9861 9860 9858 9857 9855 9854 9853 9853 9852 9850 9848 9846 9844 9841 9838 9834 9830 9826 9822 9817 9814 9814 9814 9814 9813 9812 9809 9806 9803 9802 9801 9801 9800 9798 9796 9796 9796
9839 9840 9840 9841 9843 9844 9844 9846 9847 9849 9850 9851 9852 9853 9855 9856 9858 9860 9863 9865 9867 9867 9867 9866 9866 9866 9867 9867 9866 9865 9865 9866 9866 9866 9866 9865 9864 9862 9861 9860 9859 9858 9856 9856 9854 9853 9852 9850 9848 9847 9846 9845 9844 9843 9842 9841 9840 9839 9837 9834 9831 9828 9825 9822 9819 9814 9810 9807 9806 9805 9804 9803 9803 9802 9799 9796 9795 9794 9794 9793 9792 9790 9789 9789 9789
9825 9825 9826 9827 9829 9830 9830 9831 9833 9835 9836 9838 9839 9841 9842 9843 9845 9848 9849 9850 9850 9850 9850 9851 9852 9852 9852 9852 9851 9852 9853 9853 9853 9852 9852 9851 9851 9850 9849 9848 9847 9846 9844 9843 9842 9841 9839 9838 9836 9835 9834 9833 9832 9831 9831 9830 9829 9827 9825 9823 9820 9817 9814 9811 9807 9802 9799 9798 9798 9797 9796 9794 9793 9792 9789 9786 9786 9786 9786 9785 9784 9783 9782 9782 9782
9810 9811 9812 9813 9814 9815 9816 9818 9819 9821 9823 9824 9826 9827 9829 9830 9831 9832 9833 9834 9835 9835 9836 9837 9838 9837 9837 9838 9838 9839 9840 9839 9839 9838 9838 9838 9838 9837 9837 9836 9835 9834 9833 9831 9830 9829 9827 9826 9825 9824 9823 9821 9821 9820 9819 9818 9817 9815 9814 9812 9810 9808 9804 9800 9795 9792 9790 9790 9790 9789 9787 9786 9784 9783 9780 9778 9778 9778 9778 9778 9777 9775 9775 9776 9776
9800 9800 9801 9802 9803 9803 9804 9806 9807 9808 9810 9811 9812 9814 9815 9816 9817 9817 9818 9819 9820 9821 9822 9822 9823 9823 9824 9824 9825 9826 9825 9825 9825 9825 9825 9825 9825 9825 9824 9824 9823 9822 9821 9819 9818 9817 9816 9815 9814 9812 9811 9810 9809 9808 9807 9806 9805 9803 9802 9802 9800 9797 9794 9789 9785 9783 9782 9782 9781 9780 9779 9777 9776 9774 9771 9769 9770 9771 9771 9770 9769 9769 9768 9769 9770
9790 9791 9791 9792 9793 9793 9794 9795 9796 9797 9798 9799 9800 9801 9802 9803 9803 9804 9805 9806 9806 9807 9808 9809 9809 9810 9811 9811 9812 9812 9812 9812 9813 9813 9813 9813 9813 9812 9812 9811 9810 9809 9809 9807 9806 9805 9804 9803 9802 9800 9799 9798 9797 9796 9795 9794 9793 9792 9791 9790 9788 9785 9782 9778 9775 9774 9774 9774 9772 9771 9770 9769 9767 9765 9763 9761 9762 9763 9763 9762 9762 9762 9762 9763 9764
9780 9780 9781 9782 9783 9783 9784 9785 9786 9787 9788 9788 9789 9790 9790 9791 9791 9792 9793 9794 9794 9795 9796 9796 9797 9798 9798 9799 9799 9800 9800 9800 9801 9801 9801 9801 9801 9800 9800 9799 9798 9797 9796 9795 9794 9793 9792 9791 9790 9788 9787 9785 9784 9783 9783 9782 9781 9780 9779 9777 9775 9772 9770 9768 9766 9765 9765 9765 9764 9762 9761 9760 9759 9757 9755 9754 9755 9756 9756 9755 9755 9755 9756 9757 9758
9769 9769 9770 9771 9772 9772 9773 9774 9775 9776 9777 9777 9777 9778 9778 9779 9780 9781 9781 9782 9783 9783 9784 9784 9785 9786 9786 9787 9787 9788 9788 9788 9788 9788 9788 9788 9788 9788 9787 9787 9786 9785 9785 9783 9782 9782 9780 9779 9778 9777 9775 9774 9773 9772 9771 9771 9770 9769 9767 9764 9762 9760 9759 9758 9756 9755 9755 9756 9755 9753 9752 9751 9750 9749 9748 9747 9747 9748 9749 9748 9748 9749 9750 9751 9752
9758 9759 9759 9760 9761 9761 9762 9763 9764 9765 9765 9765 9766 9767 9768 9768 9769 9770 9770 9771 9771 9772 9772 9773 9773 9774 9775 9775 9776 9776 9776 9776 9776 9776 9776 9776 9776 9775 9775 9774 9774 9773 9773 9772 9771 9770 9769 9768 9766 9765 9764 9763 9762 9761 9760 9760 9759 9757 9755 9752 9750 9748 9747 9747 9746 9745 9745 9746 9746 9745 9743 9743 9742 9741 9740 9740 9740 9741 9741 9741 9742 9743 9744 9745 9747